This is the latest recevied weather packets stored in our database for station/object KVDF. If no packets are shown the sender has not sent any weather packets the latest 10 day(s).
| Time | Temp. | Humidity | Pressure | Rain* | Wind** | Luminosity | Snow |
|---|---|---|---|---|---|---|---|
| 1777899820 | 20.56° C | 68% | 1016.9 hPa | - | - | - | - |
| 1777899223 | 20° C | 72% | 1016.9 hPa | - | - | - | - |
| 1777898623 | 20° C | 72% | 1016.9 hPa | - | - | - | - |
| 1777898024 | 20° C | 72% | 1016.6 hPa | - | - | - | - |
| 1777897422 | 20° C | 72% | 1016.6 hPa | - | - | - | - |
| 1777896819 | 17.78° C | 82% | 1016.6 hPa | - | - | - | - |
| 1777896220 | 17.78° C | 82% | 1016.6 hPa | - | - | - | - |
| 1777895619 | 16.67° C | 88% | 1016.6 hPa | - | - | - | - |
| 1777895022 | 16.67° C | 88% | 1016.6 hPa | - | - | - | - |
| 1777894422 | 15.56° C | 93% | 1016.3 hPa | - | - | - | - |
| 1777893822 | 15.56° C | 93% | 1016.3 hPa | - | - | - | - |
| 1777893224 | 15.56° C | 93% | 1016.3 hPa | - | - | - | - |
| 1777892620 | 15.56° C | 93% | 1016.3 hPa | - | - | - | - |
| 1777892024 | 15.56° C | 93% | 1016.3 hPa | - | - | - | - |
| 1777891421 | 15.56° C | 93% | 1016.3 hPa | - | - | - | - |
| 1777890822 | 15.56° C | 93% | 1016.3 hPa | - | - | - | - |
| 1777890219 | 15.56° C | 93% | 1016.3 hPa | - | - | - | - |
| 1777889619 | 15.56° C | 93% | 1015.9 hPa | - | - | - | - |
| 1777889019 | 15.56° C | 93% | 1015.9 hPa | - | - | - | - |
| 1777888424 | 16.67° C | 88% | 1015.9 hPa | - | - | - | - |
| 1777887821 | 16.67° C | 88% | 1015.9 hPa | - | - | - | - |
| 1777887221 | 16.67° C | 88% | 1015.9 hPa | - | - | - | - |
| 1777886624 | 16.67° C | 88% | 1015.9 hPa | - | - | - | - |
| 1777886022 | 16.67° C | 88% | 1015.9 hPa | - | - | - | - |
| 1777885425 | 16.67° C | 88% | 1015.9 hPa | - | - | - | - |
* Rain since midnight (hover to see other rain measurements)
** Current wind speed in m/s (hover to see current wind gust speed)